CAPE
0 0 0 0 0 0 0 0 0 0 0 0 0 0 0 0 0 0 0 0 0 0 0 0 0 0 0 0 0 0 0 0 0 0 0 0 0 0 0 0 0 0 0
0 0 0 0 0 0 0 0 0 0 0 0 0 0 0 0 0 0 0 0 0 0 0 0 0 0 0 0 0 0 0 0 0 0 0 0 0 0 0 0 0 0 0
0 0 0 0 0 0 0 0 0 0 0 0 0 0 0 0 0 0 0 0 0 0 0 0 0 0 0 0 0 0 0 0 0 0 0 0 0 0 0 0 0 0 0
0 0 0 0 0 0 0 0 0 0 0 0 0 0 0 0 0 0 0 0 0 0 0 0 0 0 0 0 0 0 0 0 0 0 0 0 0 0 0 0 0 0 0
0 0 0 0 0 0 0 0 0 0 0 0 0 0 0 0 0 0 0 0 0 0 0 0 0 0 0 0 0 0 0 0 0 0 0 0 0 0 0 0 0 0 0
0 0 0 0 0 0 0 0 0 0 0 0 0 0 0 0 0 0 0 0 0 0 0 0 0 0 0 0 0 0 0 0 0 0 0 0 0 0 0 0 0 2 2
0 0 0 0 0 0 0 0 0 0 0 0 0 0 0 0 0 0 0 0 0 0 0 0 0 0 0 0 0 0 0 0 0 0 0 0 0 0 0 0 1 5 10
0 0 0 0 0 0 0 0 0 0 0 0 0 0 0 0 0 0 0 0 0 0 0 0 0 0 0 0 0 0 0 0 0 0 0 0 0 0 0 0 0 4 3
0 0 0 0 0 0 0 0 0 0 0 0 0 0 0 0 0 0 0 0 0 0 0 0 0 0 0 0 0 0 0 0 0 0 0 0 0 0 0 0 0 2 2
0 0 0 0 0 0 0 0 0 0 0 0 0 0 0 0 0 0 0 0 0 0 0 0 0 0 0 0 0 0 0 0 0 0 0 0 0 0 0 0 0 1 2
0 0 0 0 0 0 0 0 0 0 0 0 0 0 0 0 0 0 0 0 0 0 0 0 0 0 0 0 0 0 0 0 0 0 0 0 0 0 0 0 0 0 1
0 0 0 0 0 0 0 0 0 0 0 0 0 0 0 0 0 0 0 0 0 0 0 0 0 0 1 0 0 0 0 0 0 0 0 0 0 0 0 0 0 0 0
0 0 0 0 0 0 0 0 0 0 0 0 0 0 0 0 0 0 0 0 0 0 0 0 0 0 1 0 0 0 0 0 0 0 0 0 0 0 0 0 0 0 0
0 0 0 0 0 0 0 0 0 0 0 0 0 0 0 0 0 0 0 0 0 0 0 0 0 0 0 0 0 1 0 0 0 0 0 0 0 0 0 0 0 0 0
0 0 0 0 0 0 0 0 0 0 0 0 0 0 0 0 0 0 0 0 0 0 0 1 0 0 0 0 0 0 0 0 0 0 0 0 0 0 0 0 0 0 0
0 0 0 0 0 0 0 0 0 0 1 1 0 0 0 0 0 0 0 1 1 0 0 0 0 0 0 0 0 0 0 0 0 0 0 0 0 0 0 0 0 0 0
0 1 1 0 0 0 2 1 0 0 1 4 8 17 24 16 0 3 3 0 0 0 0 0 0 0 0 0 0 0 0 0 0 0 0 0 0 0 0 0 0 0 0
0 0 0 0 0 0 0 0 0 1 0 0 1 6 9 16 13 15 12 7 0 0 2 0 0 0 0 0 0 0 0 0 0 0 0 0 0 0 0 0 0 0 0
0 0 0 0 0 0 0 1 1 0 1 0 0 0 0 0 0 6 2 7 1 0 0 0 0 0 0 0 0 0 0 0 0 0 0 0 0 0 0 0 0 0 0
0 0 0 0 0 0 0 1 1 2 1 2 1 2 1 0 0 0 2 0 0 0 0 0 0 0 0 0 0 0 0 0 0 0 0 0 0 0 0 0 0 0 0
0 0 0 0 0 1 0 1 2 1 0 1 0 0 0 4 2 0 0 0 0 3 6 5 1 0 0 0 0 0 0 0 0 0 0 0 0 0 0 0 0 0 0
0 0 0 0 0 0 0 1 0 0 1 0 0 0 0 1 3 4 2 2 0 0 0 1 3 2 0 0 2 0 0 0 0 0 0 0 0 0 0 0 0 0 0
0 0 0 0 0 0 0 0 0 0 0 0 0 0 0 0 0 1 2 1 2 0 0 0 0 0 2 0 0 1 1 0 0 0 0 0 0 0 0 0 0 0 0
0 0 0 0 0 0 0 0 0 0 0 0 0 0 0 0 0 0 0 0 1 0 0 0 0 0 0 0 1 0 0 1 0 0 0 0 0 0 0 0 0 0 0
0 0 0 0 0 0 0 0 0 0 0 0 0 0 0 0 0 0 0 0 0 0 0 0 0 0 0 0 0 0 0 0 0 0 0 0 0 0 0 0 0 0 0
0 0 0 0 0 0 0 0 0 0 0 0 0 0 0 0 0 0 0 0 0 0 0 0 0 0 0 0 0 2 1 0 0 0 0 0 0 0 0 0 0 0 0
CIN
0 0 0 0 0 0 0 0 0 0 0 0 0 0 0 0 0 0 0 0 0 0 0 0 0 0 0 0 0 0 0 0 0 0 0 0 0 0 0 0 0 0 0
0 0 0 0 0 0 0 0 0 0 0 0 0 0 0 0 0 0 0 0 0 0 0 0 0 0 0 0 0 0 0 0 0 0 0 0 0 0 0 0 0 0 0
0 0 0 0 0 0 0 0 0 0 0 0 0 0 0 0 0 0 0 0 0 0 0 0 0 0 0 0 0 0 0 0 0 0 0 0 0 0 0 0 0 0 0
0 0 0 0 0 0 0 0 0 0 0 0 0 0 0 0 0 0 0 0 0 0 0 0 0 0 0 0 0 0 0 0 0 0 0 0 0 0 0 0 0 0 0
0 0 0 0 0 0 0 0 0 0 0 0 0 0 0 0 0 0 0 0 0 0 0 0 0 0 0 0 0 0 0 0 0 0 0 0 0 0 0 0 0 0 0
0 0 0 0 0 0 0 0 0 0 0 0 0 0 0 0 0 0 0 0 0 0 0 0 0 0 0 0 0 0 0 0 0 0 0 0 0 0 0 0 0 0 0
0 0 0 0 0 0 0 0 0 0 0 0 0 0 0 0 0 0 0 0 0 0 0 0 0 0 0 0 0 0 0 0 0 0 0 0 0 0 0 0 0 0 0
0 0 0 0 0 0 0 0 0 0 0 0 0 0 0 0 0 0 0 0 0 0 0 0 0 0 0 0 0 0 0 0 0 0 0 0 0 0 0 0 0 0 0
0 0 0 0 0 0 0 0 0 0 0 0 0 0 0 0 0 0 0 0 0 0 0 0 0 0 0 0 0 0 0 0 0 0 0 0 0 0 0 0 0 0 0
0 0 0 0 0 0 0 0 0 0 0 0 0 0 0 0 0 0 0 0 0 0 0 0 0 0 0 0 0 0 0 0 0 0 0 0 0 0 0 0 0 0 0
0 0 0 0 0 0 0 0 0 0 0 0 0 0 0 0 0 0 0 0 0 0 0 0 0 0 0 0 0 0 0 0 0 0 0 0 0 0 0 0 0 0 0
0 0 0 0 0 0 0 0 0 0 0 0 0 0 0 0 0 0 0 0 0 0 0 0 0 0 0 0 0 0 0 0 0 0 0 0 0 0 0 0 0 0 0
0 0 0 0 0 0 0 0 0 0 0 0 0 0 0 0 0 0 0 0 0 0 0 0 0 0 0 0 0 0 0 0 0 0 0 0 0 0 0 0 0 0 0
0 0 0 0 0 0 0 0 0 0 0 0 0 0 0 0 0 0 0 0 0 0 0 0 0 0 0 0 0 0 0 0 0 0 0 0 0 0 0 0 0 0 0
0 0 0 0 0 0 0 0 0 0 0 0 0 0 0 0 0 0 0 0 0 0 0 0 0 0 0 0 0 0 0 0 0 0 0 0 0 0 0 0 0 0 0
0 0 0 0 0 0 0 0 0 0 -1 -3 0 0 0 0 0 0 0 0 0 0 0 0 0 0 0 0 0 0 0 0 0 0 0 0 0 0 0 0 0 0 0
0 0 0 0 0 0 0 0 0 0 0 -1 -1 -1 -2 -3 -1 -6 0 0 0 0 0 0 0 0 0 0 0 0 0 0 0 0 0 0 0 0 0 0 0 0 0
0 0 0 0 0 0 0 -1 -1 0 -1 -1 -1 0 0 0 0 0 0 0 0 0 -1 -1 -1 0 0 0 0 0 0 0 0 0 0 0 0 0 0 0 0 0 0
0 0 0 0 0 -1 0 0 0 -1 -1 0 0 0 0 0 0 0 0 0 -3 0 0 -4 0 0 0 0 0 0 0 0 0 0 0 0 0 0 0 0 0 0 0
0 0 0 0 0 0 0 0 0 0 0 -1 -1 0 0 0 0 0 -1 0 0 0 0 0 0 0 0 0 0 0 0 0 0 0 0 0 0 0 0 0 0 0 0
0 0 0 0 0 0 0 0 0 0 0 0 0 0 0 0 0 0 0 0 0 0 0 0 0 0 0 0 0 0 0 0 0 0 0 0 0 0 0 0 0 0 0
0 0 0 0 0 0 0 0 0 0 0 0 0 0 0 0 0 0 0 0 -1 0 0 0 0 0 0 0 0 0 0 0 0 0 0 0 0 0 0 0 0 0 0
0 0 0 0 0 0 0 0 0 0 0 0 0 0 0 0 0 0 0 0 0 0 0 0 0 0 0 0 0 0 0 0 0 0 0 0 0 0 0 0 0 0 0
0 0 0 0 0 0 0 0 0 0 0 0 0 0 0 0 0 0 -1 -1 0 -1 0 0 0 0 0 0 0 0 0 0 0 0 0 0 0 0 0 0 0 0 0
0 0 0 0 0 0 0 0 0 0 0 0 0 0 0 0 0 0 0 0 0 0 0 0 0 0 0 0 0 0 0 0 0 0 0 0 0 0 0 0 0 0 0
0 0 0 0 0 0 0 0 0 0 0 0 0 0 0 0 0 0 0 0 0 0 0 0 0 0 0 0 0 0 0 0 0 0 0 0 0 0 0 0 0 0 0
Wind_Speed
7 6 7 7 8 9 10 10 11 11 9 7 10 8 8 7 6 5 5 5 6 5 4 5 6 4 3 3 3 3 3 3 4 2 2 2 3 5 6 6 7 7 7
7 7 7 8 9 11 12 12 11 12 8 7 5 7 6 5 5 6 6 6 7 6 6 6 6 3 5 4 3 5 4 3 3 5 2 2 5 4 5 7 7 8 7
8 9 8 9 11 11 11 11 9 6 5 5 5 6 5 6 5 6 7 6 6 6 6 6 6 6 5 3 4 4 3 3 3 3 3 2 3 2 5 5 7 8 8
8 8 8 5 4 4 5 6 6 4 6 5 4 2 3 2 4 6 6 6 6 6 6 7 6 7 7 6 5 5 4 3 2 3 3 4 3 3 4 5 8 6 9
4 3 4 5 6 6 7 8 8 6 6 5 4 3 7 5 6 7 6 7 6 6 6 6 6 8 11 8 4 5 4 3 3 3 4 4 5 4 6 6 8 9 9
7 6 6 6 6 6 7 9 8 9 7 6 7 4 4 5 10 12 7 6 7 7 7 6 6 8 8 10 12 10 8 5 4 2 3 5 6 5 4 5 7 8 8
7 7 8 8 10 9 8 8 7 6 6 6 2 4 6 8 11 11 11 6 6 7 7 5 5 5 7 5 7 8 9 10 8 4 5 5 4 4 5 7 8 9 10
11 11 10 11 11 9 8 8 6 4 2 3 3 4 7 6 9 10 10 6 6 7 7 7 6 7 7 6 6 5 6 5 6 5 6 6 6 7 6 7 8 10 9
11 11 10 9 9 7 6 5 3 1 3 3 5 6 5 7 10 11 7 5 6 7 6 7 7 7 11 14 7 7 6 6 7 11 12 12 13 12 10 4 6 7 9
9 9 7 7 5 5 3 2 2 3 4 4 5 5 7 6 10 10 7 3 5 6 5 7 13 11 13 14 9 8 7 7 4 4 4 7 9 8 12 5 5 6 7
5 5 5 4 3 3 1 1 3 4 5 5 5 6 6 7 7 11 10 4 6 6 6 6 7 16 16 16 16 9 9 6 5 5 5 5 6 6 5 5 6 6 7
5 5 4 4 3 2 3 3 4 4 5 5 5 6 5 6 10 10 11 11 11 7 8 7 7 14 18 18 14 16 16 8 4 4 4 5 5 5 6 5 7 7 7
6 6 5 4 4 4 4 5 4 4 3 5 5 6 7 5 5 12 13 13 13 9 8 11 15 16 18 15 19 17 12 6 5 4 6 6 4 5 4 4 5 8 9
6 6 5 5 6 5 3 3 4 4 4 6 6 7 8 7 6 6 6 5 7 7 8 10 10 9 11 10 8 11 8 7 6 6 5 4 2 2 2 2 2 5 5
6 5 5 4 4 5 4 4 4 5 7 7 7 7 9 10 10 12 10 6 6 8 5 7 5 5 6 7 6 7 6 5 5 4 4 4 3 2 2 1 2 3 3
6 5 4 4 3 4 5 7 6 11 13 14 16 13 10 16 23 23 20 18 16 16 5 6 6 6 7 8 8 8 8 8 7 6 5 4 4 4 3 2 2 2 4
5 6 5 5 6 7 7 8 11 8 14 16 18 19 19 22 24 23 22 20 19 13 6 7 7 7 8 8 8 7 8 8 8 6 5 5 5 3 3 3 3 2 4
5 8 5 5 5 5 5 7 7 9 12 11 12 17 19 24 25 25 23 18 5 4 6 9 9 7 7 8 7 7 7 5 5 5 5 5 5 4 3 4 3 2 3
5 4 5 4 3 5 5 6 7 7 8 9 11 10 16 27 28 25 22 9 8 7 6 6 6 6 7 7 7 6 7 7 6 5 5 6 6 5 4 4 4 4 3
5 8 6 5 5 5 6 8 8 8 8 8 8 10 12 14 12 16 12 6 7 6 5 5 5 7 7 7 7 7 7 7 6 5 6 6 6 5 5 4 4 3 3
4 4 6 5 6 6 6 6 7 7 7 8 9 9 16 10 10 10 11 11 12 14 12 9 5 3 4 6 7 6 7 7 7 7 7 6 6 6 5 4 4 4 3
4 5 5 5 5 5 6 6 6 7 7 8 9 10 14 8 9 9 10 10 9 8 8 9 9 7 5 7 6 6 7 7 7 7 7 7 7 7 6 4 4 3 3
3 5 5 5 5 5 4 6 6 6 6 7 8 9 9 9 9 9 9 9 9 8 8 8 8 9 8 8 7 8 6 7 7 7 8 7 7 7 7 5 4 4 3
3 3 4 3 2 4 3 4 4 6 7 7 8 8 8 8 9 10 9 9 9 9 8 8 8 10 10 9 8 7 6 7 4 7 10 9 8 9 7 6 6 5 4
3 3 3 2 2 3 4 5 5 5 5 6 7 7 8 9 9 9 9 9 9 9 11 10 8 10 11 14 13 13 9 10 8 5 6 8 9 11 9 8 8 4 4
1 2 1 2 2 3 3 4 5 4 5 6 7 7 8 9 9 9 9 10 10 12 12 9 11 14 14 11 12 13 13 11 8 8 3 6 7 7 8 10 12 8 6
Wind_Direction
177 167 159 171 167 165 177 173 172 165 165 168 170 168 180 176 171 185 205 195 211 224 231 224 242 222 223 206 195 187 198 187 232 258 229 246 264 263 283 288 288 284 282
163 153 156 155 160 175 181 174 167 174 182 162 152 167 190 164 185 203 211 212 214 221 225 219 234 209 225 213 200 216 214 198 200 265 235 241 234 247 263 288 294 300 288
149 157 171 178 177 184 177 174 162 121 102 117 155 177 177 198 203 222 220 224 223 221 217 211 222 208 223 211 212 220 215 221 212 230 277 248 269 269 298 292 288 288 286
160 167 178 189 157 117 104 100 114 140 144 159 178 128 170 252 274 252 232 230 229 221 217 211 222 211 216 215 212 215 208 216 217 236 264 276 270 284 293 303 306 300 297
133 126 145 125 113 108 109 117 113 95 113 106 85 56 19 308 273 262 237 226 215 221 220 220 219 224 225 207 185 214 195 207 221 243 268 273 287 298 301 307 296 300 300
139 132 118 101 99 110 117 117 105 116 108 85 41 23 297 283 271 268 238 217 212 210 215 223 225 229 235 232 221 210 195 191 212 212 249 272 282 279 279 285 291 308 318
102 93 91 95 94 87 71 62 68 71 60 53 55 276 288 269 272 274 247 219 207 214 214 213 220 222 222 225 223 203 206 219 220 202 246 250 261 257 280 287 289 287 290
87 90 98 103 94 84 80 85 75 69 65 243 251 257 259 271 286 290 262 228 219 220 211 209 209 219 215 198 199 211 220 227 239 245 221 241 242 259 251 275 286 290 285
92 90 85 82 95 94 86 102 176 179 231 237 235 247 264 280 295 298 290 239 238 235 220 211 212 218 223 219 199 219 225 237 245 259 242 245 260 281 292 298 297 305 303
90 95 100 110 109 99 129 148 193 222 251 251 264 254 267 274 283 295 289 205 243 245 232 225 230 220 222 219 204 206 223 236 225 243 257 265 269 271 288 275 283 288 298
95 102 104 101 117 133 213 262 274 270 279 268 269 275 267 253 266 284 289 218 235 248 244 229 220 232 230 220 211 199 213 207 223 227 248 259 269 270 267 260 264 265 278
78 73 64 51 17 349 305 288 281 276 274 278 279 283 262 261 255 262 271 251 234 231 239 237 233 223 231 230 214 213 222 218 204 225 240 259 258 261 262 259 274 274 259
62 47 30 8 356 343 322 310 306 291 270 279 274 278 280 263 260 259 261 262 253 238 235 239 243 243 238 227 222 212 216 207 202 218 237 248 230 238 260 270 282 289 288
47 30 16 7 345 341 326 303 291 285 280 274 274 273 274 273 251 253 254 252 260 250 252 254 247 240 230 226 216 216 215 210 206 219 223 236 253 235 233 244 268 300 300
44 28 15 4 352 331 310 283 283 261 253 279 277 275 284 283 275 252 243 235 229 232 234 253 236 221 219 219 217 214 210 204 206 204 205 219 236 227 244 242 258 294 280
34 16 356 344 334 328 317 323 290 282 291 288 287 280 286 274 281 282 274 265 263 256 210 236 232 228 230 228 222 215 214 213 217 205 205 211 227 217 238 257 244 253 292
25 12 6 1 352 345 343 333 326 324 317 319 315 306 300 297 299 294 284 276 271 257 236 237 231 232 235 232 224 216 213 211 205 200 198 203 210 210 204 243 253 267 295
22 18 10 350 343 340 332 331 326 329 330 332 331 327 322 320 315 304 293 290 269 250 243 256 256 238 235 234 225 216 217 206 196 197 188 192 193 188 201 228 240 241 277
18 12 358 334 329 336 340 341 339 335 339 339 340 350 358 341 328 301 297 278 273 255 249 245 242 242 248 239 230 221 216 209 196 180 193 188 189 178 210 224 237 232 238
12 9 359 351 354 358 352 347 347 341 343 338 338 343 344 340 354 351 329 268 259 257 239 236 242 258 248 232 232 226 218 211 193 192 196 187 182 181 200 207 203 222 244
6 12 1 3 5 2 351 348 347 340 336 342 337 335 338 337 342 350 351 359 11 0 358 353 338 301 263 248 240 225 217 215 204 192 189 187 173 189 198 198 206 212 230
26 10 2 12 1 358 346 353 342 335 344 336 333 331 336 343 341 342 346 345 352 351 341 348 341 343 336 345 299 235 220 218 204 189 185 180 179 189 177 181 195 201 209
42 19 7 14 359 350 344 348 340 331 340 331 329 330 335 337 335 334 337 335 336 336 337 341 335 333 332 332 331 334 262 222 212 188 179 176 177 181 176 177 177 179 195
35 25 12 4 350 340 330 325 323 324 337 329 322 322 326 325 324 324 329 328 328 333 331 326 322 321 325 325 323 317 321 335 239 200 183 178 181 176 173 167 175 174 169
56 28 10 321 345 333 336 331 320 307 321 321 317 320 319 317 319 322 322 325 326 327 323 319 317 316 315 316 305 308 311 323 327 267 191 183 180 176 177 178 167 161 150
59 25 341 329 356 345 328 324 315 308 314 315 312 311 312 315 316 318 321 325 326 319 315 313 308 311 311 306 302 311 316 312 313 327 262 186 175 170 173 176 170 171 157